Hourly Data Report for September 15, 2017

All times are specified in Local Standard Time (LST). Add 1 hour to adjust for Daylight Saving Time where and when it is observed.

ST. PETERS
PRINCE EDWARD ISLAND

46°27'01.000" N
62°34'33.000" W
29.70 m
8300562
71310
ZSP

Download Data

Hourly Data (September 2017)
Hourly Data Report for September 15, 2017
Temp Definition
°C
Dew Point Temp Definition
°C
Rel Hum Definition
%
Wind Dir Definition
10's deg

Wind Spd Definition
km/h
Visibility Definition
km
Stn Press Definition
kPa
Hmdx Definition


Wind Chill Definition


Weather Definition


TIME
00:00 14.2 13.0 92 1 7   100.97     LegendNANA
01:00 15.3 13.4 89 4 14   101.09     LegendNANA
02:00 14.7 11.2 79 4 13   101.16     LegendNANA
03:00 14.8 9.9 72 4 13   101.21     LegendNANA
04:00 14.7 8.8 68 4 9   101.28     LegendNANA
05:00 15.2 8.3 63 3 10   101.37     LegendNANA
06:00 14.9 8.8 67 2 9   101.47     LegendNANA
07:00 15.3 7.9 62 2 9   101.56     LegendNANA
08:00 15.6 9.7 68 2 8   101.65     LegendNANA
09:00 16.1 10.2 68 4 9   101.72     LegendNANA
10:00 16.7 9.3 62 2 10   101.78     LegendNANA
11:00 16.9 10.0 64 36 9   101.81     LegendNANA
12:00 17.0 9.9 63 36 9   101.81     LegendNANA
13:00 17.8 10.8 64 1 7   101.82     LegendNANA
14:00 17.2 9.9 62 1 9   101.78     LegendNANA
15:00 17.3 10.4 64 4 9   101.80     LegendNANA
16:00 16.6 9.9 64 4 10   101.81     LegendNANA
17:00 16.0 10.5 70 6 8   101.84     LegendNANA
18:00 14.7 10.6 76 8 4   101.85     LegendNANA
19:00 12.9 10.2 84 13 2   101.88     LegendNANA
20:00 12.6 9.9 84 13 7   101.88     LegendNANA
21:00 13.0 9.9 81 12 5   101.87     LegendNANA
22:00 12.7 10.0 84 14 9   101.82     LegendNANA
23:00 13.1 10.3 83 15 9   101.77     LegendNANA

Notes on Data Quality.

Legend

  • E = Estimated
  • M = Missing
  • NA = Not Available
  • ‡ = Partner data that is not subject to review by the National Climate Archives
Date modified: